Historyczne dane pomiarowe

Dodano dane terminowe – wersja testowa.

Dane z okresu 1951-2019

Wersja bazy: 1.34 [2019-03-16, lista zmian], aktualizacja planowana na 2019-04-15

Dane meteo z obszaru Polski uzyskane na podstawie danych udostępnionych przez Instytut Meteorologii i Gospodarki Wodnej – Państwowy Instytut Badawczy.

 

Wybierz Datę:    

       

TemperaturaWilgotnośćZachmurzenieWiatrCiśnienieWidzialnośćZjawiska
 Data    tng td wb rh cc ccl cl cm ch dir g1 g2 mslp ppp      
1973-05-10 00:00:00 -2.8--- -3.5 -2.995wxwx4wx--- 838.7 0.0---wxw1
1973-05-10 01:00:00 -2.8------wxwx5wx--- 838.4----wx
1973-05-10 02:00:00 -3.0------wxwx4wx--- 838.2----wx
1973-05-10 03:00:00 -3.4--- -4.5 -3.692wxwx4wx--- 837.6----wx
1973-05-10 04:00:00 -3.6------wxwx5wx--- 837.7----wx
1973-05-10 05:00:00 -2.6------wxwx4wx--- 837.5----wx
1973-05-10 06:00:00 -2.6--- -3.6 -2.893wxwxwx4wx--- 837.4 0.0---wx
1973-05-10 07:00:00 -2.2------wxwxwx2wx--- 837.4----wx
1973-05-10 08:00:00 -1.2------wxwxwx4wx--- 837.6----wx
1973-05-10 09:00:00 -1.2--- -3.8 -2.381wxwxwx6wx--- 837.2----wx
1973-05-10 10:00:00 -0.3------wxwxwx6wx--- 837.1----wx
1973-05-10 11:00:00 0.2------wxwxwx7wx--- 836.8----wx
1973-05-10 12:00:00 1.0--- -0.2 0.491wxwxwx6wx--- 836.6 0.0---wx
1973-05-10 13:00:00 1.3------wxwxwx8wx--- 836.3----wx
1973-05-10 14:00:00 1.6------wxwxwx6wx--- 836.0----wx
1973-05-10 15:00:00 1.8--- 2.0 1.8100wxwxwx5wx--- 835.8----wx
1973-05-10 16:00:00 1.2------wxwxwx5wx--- 835.7----wx
1973-05-10 17:00:00 1.0------wxwxwx4wx--- 835.6----wx
1973-05-10 18:00:00 1.2--- 1.2 1.2100wxwxwx4wx--- 835.6 0.0---wx
1973-05-10 19:00:00 1.4------wxwx5wx--- 835.2----wxw1
1973-05-10 20:00:00 1.4------wxwx4wx--- 835.2----wxw1
1973-05-10 21:00:00 1.4--- 1.4 1.4100wxwx4wx--- 835.3----wxw1
1973-05-10 22:00:00 1.5------wxwx5wx--- 835.3----wxw1
1973-05-10 23:00:00 1.3------wxwx0wx--- 835.1----wxw1

 

Źródłem pochodzenia danych jest Instytut Meteorologii i Gospodarki Wodnej – Państwowy Instytut Badawczy. Dane Instytutu Meteorologii i Gospodarki Wodnej – Państwowego Instytutu Badawczego zostały przetworzone.

Dane źródłowe można odnaleźć na stronie https://dane.imgw.pl